Time,TemperatureF,DewpointF,PressureIn,WindDirection,WindDirectionDegrees,WindSpeedMPH,WindSpeedGustMPH,Humidity,HourlyPrecipIn,Conditions,Clouds,dailyrainin,SoftwareType,DateUTC
2015-05-23 00:00:00,55.7,44.1,30.27,NE,34,0.0,0.0,65,0.00,,,0.00,Wunderground v.1.15,2015-05-23 04:00:00,
2015-05-23 00:05:00,55.4,43.8,30.27,NE,34,0.0,0.0,65,0.00,,,0.00,Wunderground v.1.15,2015-05-23 04:05:00,
2015-05-23 00:10:00,55.3,43.3,30.27,NE,34,0.0,0.0,64,0.00,,,0.00,Wunderground v.1.15,2015-05-23 04:10:00,
2015-05-23 00:16:00,55.1,43.1,30.27,NE,34,0.0,0.0,64,0.00,,,0.00,Wunderground v.1.15,2015-05-23 04:16:00,
2015-05-23 00:21:00,55.0,43.0,30.28,NE,34,0.0,0.0,64,0.00,,,0.00,Wunderground v.1.15,2015-05-23 04:21:00,
2015-05-23 00:27:00,55.0,43.0,30.28,NE,34,0.0,0.0,64,0.00,,,0.00,Wunderground v.1.15,2015-05-23 04:27:00,
2015-05-23 00:32:00,54.8,42.4,30.28,NE,34,0.0,0.0,63,0.00,,,0.00,Wunderground v.1.15,2015-05-23 04:32:00,
2015-05-23 00:38:00,54.7,42.3,30.27,NE,34,0.0,0.0,63,0.00,,,0.00,Wunderground v.1.15,2015-05-23 04:38:00,
2015-05-23 00:43:00,54.4,42.5,30.27,NE,34,0.0,0.0,64,0.00,,,0.00,Wunderground v.1.15,2015-05-23 04:43:00,
2015-05-23 00:49:00,54.2,42.3,30.28,NE,34,0.0,0.0,64,0.00,,,0.00,Wunderground v.1.15,2015-05-23 04:49:00,
2015-05-23 00:55:00,54.1,42.2,30.28,NE,34,0.0,0.0,64,0.00,,,0.00,Wunderground v.1.15,2015-05-23 04:55:00,
2015-05-23 01:00:00,53.9,42.0,30.28,NE,34,0.0,0.0,64,0.00,,,0.00,Wunderground v.1.15,2015-05-23 05:00:00,
2015-05-23 01:07:00,53.8,42.3,30.28,NE,34,0.0,0.0,65,0.00,,,0.00,Wunderground v.1.15,2015-05-23 05:07:00,
2015-05-23 01:12:00,53.6,42.1,30.28,NE,34,0.0,0.0,65,0.00,,,0.00,Wunderground v.1.15,2015-05-23 05:12:00,
2015-05-23 01:17:00,53.5,42.8,30.28,NE,34,0.0,0.0,67,0.00,,,0.00,Wunderground v.1.15,2015-05-23 05:17:00,
2015-05-23 01:23:00,53.2,43.3,30.28,NE,34,0.0,0.0,69,0.00,,,0.00,Wunderground v.1.15,2015-05-23 05:23:00,
2015-05-23 01:28:00,52.8,42.9,30.28,NE,34,0.0,0.0,69,0.00,,,0.00,Wunderground v.1.15,2015-05-23 05:28:00,
2015-05-23 01:34:00,52.5,42.2,30.28,NE,34,0.0,0.0,68,0.00,,,0.00,Wunderground v.1.15,2015-05-23 05:34:00,
2015-05-23 01:40:00,52.5,42.6,30.28,NE,34,0.0,0.0,69,0.00,,,0.00,Wunderground v.1.15,2015-05-23 05:40:00,
2015-05-23 01:45:00,52.3,43.2,30.28,NE,34,0.0,0.0,71,0.00,,,0.00,Wunderground v.1.15,2015-05-23 05:45:00,
2015-05-23 01:51:00,52.2,43.1,30.28,NE,34,0.0,0.0,71,0.00,,,0.00,Wunderground v.1.15,2015-05-23 05:51:00,
2015-05-23 01:57:00,52.0,42.5,30.28,NE,34,0.0,0.0,70,0.00,,,0.00,Wunderground v.1.15,2015-05-23 05:57:00,
2015-05-23 02:02:00,52.0,42.1,30.28,NE,34,0.0,0.0,69,0.00,,,0.00,Wunderground v.1.15,2015-05-23 06:02:00,
2015-05-23 02:07:00,51.9,41.7,30.28,NE,34,0.0,0.0,68,0.00,,,0.00,Wunderground v.1.15,2015-05-23 06:07:00,
2015-05-23 02:12:00,51.9,41.7,30.28,NE,34,0.0,0.0,68,0.00,,,0.00,Wunderground v.1.15,2015-05-23 06:12:00,
2015-05-23 02:17:00,51.9,41.7,30.28,NE,34,0.0,0.0,68,0.00,,,0.00,Wunderground v.1.15,2015-05-23 06:17:00,
2015-05-23 02:22:00,51.9,41.3,30.28,NE,34,0.0,0.0,67,0.00,,,0.00,Wunderground v.1.15,2015-05-23 06:22:00,
2015-05-23 02:27:00,51.7,41.5,30.28,NE,34,0.0,0.0,68,0.00,,,0.00,Wunderground v.1.15,2015-05-23 06:27:00,
2015-05-23 02:32:00,51.6,41.0,30.28,NE,34,0.0,0.0,67,0.00,,,0.00,Wunderground v.1.15,2015-05-23 06:32:00,
2015-05-23 02:37:00,51.4,40.8,30.28,NE,34,0.0,0.0,67,0.00,,,0.00,Wunderground v.1.15,2015-05-23 06:37:00,
2015-05-23 02:42:00,51.3,41.1,30.28,NE,34,0.0,0.0,68,0.00,,,0.00,Wunderground v.1.15,2015-05-23 06:42:00,
2015-05-23 02:47:00,51.0,40.8,30.28,NE,34,0.0,0.0,68,0.00,,,0.00,Wunderground v.1.15,2015-05-23 06:47:00,
2015-05-23 02:52:00,50.7,40.5,30.28,NE,34,0.0,0.0,68,0.00,,,0.00,Wunderground v.1.15,2015-05-23 06:52:00,
2015-05-23 02:57:00,50.5,40.3,30.28,NE,34,0.0,0.0,68,0.00,,,0.00,Wunderground v.1.15,2015-05-23 06:57:00,
2015-05-23 03:02:00,50.4,39.9,30.28,NE,34,0.0,0.0,67,0.00,,,0.00,Wunderground v.1.15,2015-05-23 07:02:00,
2015-05-23 03:12:00,50.2,40.0,30.28,NE,34,0.0,0.0,68,0.00,,,0.00,Wunderground v.1.15,2015-05-23 07:12:00,
2015-05-23 03:17:00,50.1,39.9,30.28,NE,34,0.0,0.0,68,0.00,,,0.00,Wunderground v.1.15,2015-05-23 07:17:00,
2015-05-23 03:22:00,49.9,39.8,30.28,NE,34,0.0,0.0,68,0.00,,,0.00,Wunderground v.1.15,2015-05-23 07:22:00,
2015-05-23 03:27:00,49.9,39.8,30.28,NE,34,0.0,0.0,68,0.00,,,0.00,Wunderground v.1.15,2015-05-23 07:27:00,
2015-05-23 03:32:00,49.8,39.7,30.28,NE,34,0.0,0.0,68,0.00,,,0.00,Wunderground v.1.15,2015-05-23 07:32:00,
2015-05-23 03:37:00,49.8,39.7,30.29,NE,34,0.0,0.0,68,0.00,,,0.00,Wunderground v.1.15,2015-05-23 07:37:00,
2015-05-23 03:42:00,49.6,39.5,30.29,NE,34,0.0,0.0,68,0.00,,,0.00,Wunderground v.1.15,2015-05-23 07:42:00,
2015-05-23 03:47:00,49.6,39.5,30.29,NE,34,0.0,0.0,68,0.00,,,0.00,Wunderground v.1.15,2015-05-23 07:47:00,
2015-05-23 03:52:00,49.6,39.5,30.29,NE,34,0.0,0.0,68,0.00,,,0.00,Wunderground v.1.15,2015-05-23 07:52:00,
2015-05-23 03:57:00,49.5,39.7,30.29,NE,34,0.0,0.0,69,0.00,,,0.00,Wunderground v.1.15,2015-05-23 07:57:00,
2015-05-23 04:02:00,49.5,39.7,30.29,NE,34,0.0,0.0,69,0.00,,,0.00,Wunderground v.1.15,2015-05-23 08:02:00,
2015-05-23 04:07:00,49.4,40.0,30.29,NE,34,0.0,0.0,70,0.00,,,0.00,Wunderground v.1.15,2015-05-23 08:07:00,
2015-05-23 04:12:00,49.4,40.0,30.29,NE,34,0.0,0.0,70,0.00,,,0.00,Wunderground v.1.15,2015-05-23 08:12:00,
2015-05-23 04:17:00,49.2,40.2,30.29,NE,34,0.0,0.0,71,0.00,,,0.00,Wunderground v.1.15,2015-05-23 08:17:00,
2015-05-23 04:22:00,49.1,40.1,30.30,NE,34,0.0,0.0,71,0.00,,,0.00,Wunderground v.1.15,2015-05-23 08:22:00,
2015-05-23 04:27:00,49.1,40.1,30.30,NE,34,0.0,0.0,71,0.00,,,0.00,Wunderground v.1.15,2015-05-23 08:27:00,
2015-05-23 04:32:00,49.1,40.1,30.30,NE,34,0.0,0.0,71,0.00,,,0.00,Wunderground v.1.15,2015-05-23 08:32:00,
2015-05-23 04:37:00,49.1,40.1,30.30,NE,34,0.0,1.0,71,0.00,,,0.00,Wunderground v.1.15,2015-05-23 08:37:00,
2015-05-23 04:42:00,49.1,40.1,30.30,NE,34,0.0,0.0,71,0.00,,,0.00,Wunderground v.1.15,2015-05-23 08:42:00,
2015-05-23 04:47:00,48.9,39.9,30.30,NE,34,0.0,0.0,71,0.00,,,0.00,Wunderground v.1.15,2015-05-23 08:47:00,
2015-05-23 04:52:00,48.9,39.9,30.30,NE,34,0.0,0.0,71,0.00,,,0.00,Wunderground v.1.15,2015-05-23 08:52:00,
2015-05-23 04:57:00,48.9,39.9,30.30,NE,34,0.0,0.0,71,0.00,,,0.00,Wunderground v.1.15,2015-05-23 08:57:00,
2015-05-23 05:02:00,48.9,39.5,30.30,NE,34,0.0,0.0,70,0.00,,,0.00,Wunderground v.1.15,2015-05-23 09:02:00,
2015-05-23 05:07:00,48.8,39.8,30.31,NE,34,0.0,0.0,71,0.00,,,0.00,Wunderground v.1.15,2015-05-23 09:07:00,
2015-05-23 05:12:00,48.8,39.8,30.31,NE,34,0.0,0.0,71,0.00,,,0.00,Wunderground v.1.15,2015-05-23 09:12:00,
2015-05-23 05:17:00,48.8,39.8,30.31,NE,34,0.0,0.0,71,0.00,,,0.00,Wunderground v.1.15,2015-05-23 09:17:00,
2015-05-23 05:22:00,48.9,40.3,30.31,NE,34,0.0,0.0,72,0.00,,,0.00,Wunderground v.1.15,2015-05-23 09:22:00,
2015-05-23 05:27:00,48.8,40.2,30.31,NE,34,0.0,0.0,72,0.00,,,0.00,Wunderground v.1.15,2015-05-23 09:27:00,
2015-05-23 05:32:00,48.8,40.2,30.31,NE,34,0.0,0.0,72,0.00,,,0.00,Wunderground v.1.15,2015-05-23 09:32:00,
2015-05-23 05:37:00,48.9,40.3,30.31,NE,34,0.0,0.0,72,0.00,,,0.00,Wunderground v.1.15,2015-05-23 09:37:00,
2015-05-23 05:42:00,48.8,40.2,30.31,NE,34,0.0,0.0,72,0.00,,,0.00,Wunderground v.1.15,2015-05-23 09:42:00,
2015-05-23 05:47:00,48.8,40.2,30.31,NE,34,0.0,0.0,72,0.00,,,0.00,Wunderground v.1.15,2015-05-23 09:47:00,
2015-05-23 05:52:00,48.8,40.2,30.32,NE,34,0.0,0.0,72,0.00,,,0.00,Wunderground v.1.15,2015-05-23 09:52:00,
2015-05-23 05:58:00,48.8,40.2,30.32,NE,34,0.0,0.0,72,0.00,,,0.00,Wunderground v.1.15,2015-05-23 09:58:00,
2015-05-23 06:03:00,48.9,40.3,30.32,NE,34,0.0,0.0,72,0.00,,,0.00,Wunderground v.1.15,2015-05-23 10:03:00,
2015-05-23 06:08:00,49.1,40.5,30.33,NE,34,0.0,0.0,72,0.00,,,0.00,Wunderground v.1.15,2015-05-23 10:08:00,
2015-05-23 06:13:00,49.1,40.5,30.33,NE,34,0.0,0.0,72,0.00,,,0.00,Wunderground v.1.15,2015-05-23 10:13:00,
2015-05-23 06:18:00,49.2,40.6,30.33,NE,34,0.0,0.0,72,0.00,,,0.00,Wunderground v.1.15,2015-05-23 10:18:00,
2015-05-23 06:23:00,49.4,40.7,30.33,NE,34,0.0,0.0,72,0.00,,,0.00,Wunderground v.1.15,2015-05-23 10:23:00,
2015-05-23 06:28:00,49.5,40.5,30.33,NE,34,0.0,0.0,71,0.00,,,0.00,Wunderground v.1.15,2015-05-23 10:28:00,
2015-05-23 06:33:00,49.5,40.1,30.33,NE,34,0.0,0.0,70,0.00,,,0.00,Wunderground v.1.15,2015-05-23 10:33:00,
2015-05-23 06:38:00,49.6,40.2,30.34,NE,34,0.0,0.0,70,0.00,,,0.00,Wunderground v.1.15,2015-05-23 10:38:00,
2015-05-23 06:43:00,49.8,40.4,30.34,NE,34,0.0,0.0,70,0.00,,,0.00,Wunderground v.1.15,2015-05-23 10:43:00,
2015-05-23 06:48:00,49.9,39.8,30.34,NE,34,0.0,0.0,68,0.00,,,0.00,Wunderground v.1.15,2015-05-23 10:48:00,
2015-05-23 06:53:00,50.1,40.3,30.34,NE,34,0.0,0.0,69,0.00,,,0.00,Wunderground v.1.15,2015-05-23 10:53:00,
2015-05-23 06:58:00,50.4,40.6,30.34,NE,34,0.0,0.0,69,0.00,,,0.00,Wunderground v.1.15,2015-05-23 10:58:00,
2015-05-23 07:03:00,50.7,40.9,30.34,NE,34,0.0,0.0,69,0.00,,,0.00,Wunderground v.1.15,2015-05-23 11:03:00,
2015-05-23 07:08:00,51.0,40.8,30.34,NE,37,0.0,3.0,68,0.00,,,0.00,Wunderground v.1.15,2015-05-23 11:08:00,
2015-05-23 07:13:00,51.4,40.4,30.34,NE,37,0.0,0.0,66,0.00,,,0.00,Wunderground v.1.15,2015-05-23 11:13:00,
2015-05-23 07:18:00,51.9,40.5,30.34,NE,37,0.0,0.0,65,0.00,,,0.00,Wunderground v.1.15,2015-05-23 11:18:00,
2015-05-23 07:23:00,52.2,40.8,30.35,NE,37,0.0,0.0,65,0.00,,,0.00,Wunderground v.1.15,2015-05-23 11:23:00,
2015-05-23 07:28:00,52.5,41.1,30.35,NE,37,0.0,0.0,65,0.00,,,0.00,Wunderground v.1.15,2015-05-23 11:28:00,
2015-05-23 07:33:00,52.9,41.8,30.35,NE,37,0.0,0.0,66,0.00,,,0.00,Wunderground v.1.15,2015-05-23 11:33:00,
2015-05-23 07:38:00,53.2,41.7,30.36,NE,37,0.0,0.0,65,0.00,,,0.00,Wunderground v.1.15,2015-05-23 11:38:00,
2015-05-23 07:43:00,53.5,41.6,30.36,NE,37,0.0,0.0,64,0.00,,,0.00,Wunderground v.1.15,2015-05-23 11:43:00,
2015-05-23 07:48:00,53.6,41.7,30.36,NE,37,0.0,1.0,64,0.00,,,0.00,Wunderground v.1.15,2015-05-23 11:48:00,
2015-05-23 07:53:00,53.9,41.2,30.35,NE,37,0.0,1.0,62,0.00,,,0.00,Wunderground v.1.15,2015-05-23 11:53:00,
2015-05-23 07:58:00,54.2,41.0,30.35,NE,37,0.0,1.0,61,0.00,,,0.00,Wunderground v.1.15,2015-05-23 11:58:00,
2015-05-23 08:03:00,54.5,41.3,30.35,NE,37,0.0,2.0,61,0.00,,,0.00,Wunderground v.1.15,2015-05-23 12:03:00,
2015-05-23 08:08:00,55.0,40.9,30.36,NE,37,0.0,2.0,59,0.00,,,0.00,Wunderground v.1.15,2015-05-23 12:08:00,
2015-05-23 08:13:00,55.3,40.3,30.36,SSE,161,0.0,0.0,57,0.00,,,0.00,Wunderground v.1.15,2015-05-23 12:13:00,
2015-05-23 08:18:00,55.7,40.7,30.36,SSE,161,0.0,0.0,57,0.00,,,0.00,Wunderground v.1.15,2015-05-23 12:18:00,
2015-05-23 08:23:00,56.3,41.3,30.36,SSE,161,0.0,0.0,57,0.00,,,0.00,Wunderground v.1.15,2015-05-23 12:23:00,
2015-05-23 08:28:00,56.7,42.1,30.36,SSW,196,2.0,4.0,58,0.00,,,0.00,Wunderground v.1.15,2015-05-23 12:28:00,
2015-05-23 08:33:00,56.7,42.1,30.36,SSW,196,0.0,0.0,58,0.00,,,0.00,Wunderground v.1.15,2015-05-23 12:33:00,
2015-05-23 08:38:00,56.9,41.8,30.37,ESE,113,4.0,4.0,57,0.00,,,0.00,Wunderground v.1.15,2015-05-23 12:38:00,
2015-05-23 08:43:00,57.3,42.6,30.37,SE,126,0.0,1.0,58,0.00,,,0.00,Wunderground v.1.15,2015-05-23 12:43:00,
2015-05-23 08:48:00,57.8,41.3,30.37,SW,217,1.0,5.0,54,0.00,,,0.00,Wunderground v.1.15,2015-05-23 12:48:00,
2015-05-23 08:53:00,58.0,41.9,30.37,SW,214,0.0,1.0,55,0.00,,,0.00,Wunderground v.1.15,2015-05-23 12:53:00,
2015-05-23 08:58:00,58.3,42.2,30.37,SW,214,0.0,3.0,55,0.00,,,0.00,Wunderground v.1.15,2015-05-23 12:58:00,
2015-05-23 09:03:00,58.4,42.8,30.37,SSW,207,1.0,1.0,56,0.00,,,0.00,Wunderground v.1.15,2015-05-23 13:03:00,
2015-05-23 09:08:00,59.0,43.3,30.37,SSW,209,1.0,4.0,56,0.00,,,0.00,Wunderground v.1.15,2015-05-23 13:08:00,
2015-05-23 09:13:00,59.5,41.3,30.37,SSW,209,0.0,6.0,51,0.00,,,0.00,Wunderground v.1.15,2015-05-23 13:13:00,
2015-05-23 09:18:00,60.1,41.9,30.37,ESE,120,0.0,6.0,51,0.00,,,0.00,Wunderground v.1.15,2015-05-23 13:18:00,
2015-05-23 09:23:00,60.4,42.2,30.38,SSE,153,0.0,4.0,51,0.00,,,0.00,Wunderground v.1.15,2015-05-23 13:23:00,
2015-05-23 09:28:00,60.4,43.7,30.38,SSE,153,0.0,4.0,54,0.00,,,0.00,Wunderground v.1.15,2015-05-23 13:28:00,
2015-05-23 09:34:00,60.7,43.5,30.38,SSE,153,0.0,1.0,53,0.00,,,0.00,Wunderground v.1.15,2015-05-23 13:34:00,
2015-05-23 09:39:00,60.9,43.6,30.38,SSE,153,0.0,2.0,53,0.00,,,0.00,Wunderground v.1.15,2015-05-23 13:39:00,
2015-05-23 09:44:00,61.0,43.7,30.38,SSE,152,0.0,0.0,53,0.00,,,0.00,Wunderground v.1.15,2015-05-23 13:44:00,
2015-05-23 09:49:00,61.2,43.9,30.38,SSE,153,0.0,0.0,53,0.00,,,0.00,Wunderground v.1.15,2015-05-23 13:49:00,
2015-05-23 09:54:00,61.3,44.0,30.38,SSE,157,0.0,0.0,53,0.00,,,0.00,Wunderground v.1.15,2015-05-23 13:54:00,
2015-05-23 09:59:00,61.5,43.7,30.38,SSE,157,1.0,1.0,52,0.00,,,0.00,Wunderground v.1.15,2015-05-23 13:59:00,
2015-05-23 10:04:00,61.8,44.5,30.38,SSE,159,0.0,3.0,53,0.00,,,0.00,Wunderground v.1.15,2015-05-23 14:04:00,
2015-05-23 10:09:00,62.0,44.2,30.38,South,169,0.0,4.0,52,0.00,,,0.00,Wunderground v.1.15,2015-05-23 14:09:00,
2015-05-23 10:14:00,62.6,44.7,30.38,South,169,0.0,0.0,52,0.00,,,0.00,Wunderground v.1.15,2015-05-23 14:14:00,
2015-05-23 10:19:00,63.2,45.8,30.38,South,169,0.0,0.0,53,0.00,,,0.00,Wunderground v.1.15,2015-05-23 14:19:00,
2015-05-23 10:24:00,63.7,45.2,30.38,South,186,0.0,7.0,51,0.00,,,0.00,Wunderground v.1.15,2015-05-23 14:24:00,
2015-05-23 10:29:00,64.3,45.8,30.38,South,188,0.0,7.0,51,0.00,,,0.00,Wunderground v.1.15,2015-05-23 14:29:00,
2015-05-23 10:34:00,64.5,45.4,30.38,WSW,241,0.0,2.0,50,0.00,,,0.00,Wunderground v.1.15,2015-05-23 14:34:00,
2015-05-23 10:39:00,64.7,45.6,30.38,WSW,240,1.0,4.0,50,0.00,,,0.00,Wunderground v.1.15,2015-05-23 14:39:00,
2015-05-23 10:44:00,65.2,46.6,30.38,South,182,0.0,0.0,51,0.00,,,0.00,Wunderground v.1.15,2015-05-23 14:44:00,
2015-05-23 10:49:00,66.0,47.9,30.38,South,180,0.0,4.0,52,0.00,,,0.00,Wunderground v.1.15,2015-05-23 14:49:00,
2015-05-23 10:54:00,66.9,47.6,30.38,South,180,0.0,1.0,50,0.00,,,0.00,Wunderground v.1.15,2015-05-23 14:54:00,
2015-05-23 10:59:00,67.1,46.7,30.38,South,180,0.0,2.0,48,0.00,,,0.00,Wunderground v.1.15,2015-05-23 14:59:00,
2015-05-23 11:04:00,67.6,47.8,30.38,South,187,2.0,4.0,49,0.00,,,0.00,Wunderground v.1.15,2015-05-23 15:04:00,
2015-05-23 11:09:00,67.4,46.5,30.38,SSW,198,0.0,5.0,47,0.00,,,0.00,Wunderground v.1.15,2015-05-23 15:09:00,
2015-05-23 11:14:00,67.8,47.9,30.38,South,171,0.0,4.0,49,0.00,,,0.00,Wunderground v.1.15,2015-05-23 15:14:00,
2015-05-23 11:19:00,68.1,47.7,30.38,South,173,0.0,4.0,48,0.00,,,0.00,Wunderground v.1.15,2015-05-23 15:19:00,
2015-05-23 11:24:00,68.6,48.1,30.37,South,171,0.0,1.0,48,0.00,,,0.00,Wunderground v.1.15,2015-05-23 15:24:00,
2015-05-23 11:29:00,69.3,48.2,30.37,South,173,0.0,1.0,47,0.00,,,0.00,Wunderground v.1.15,2015-05-23 15:29:00,
2015-05-23 11:34:00,69.9,48.2,30.37,ESE,117,0.0,3.0,46,0.00,,,0.00,Wunderground v.1.15,2015-05-23 15:34:00,
2015-05-23 11:39:00,70.1,49.5,30.37,SSE,167,0.0,5.0,48,0.00,,,0.00,Wunderground v.1.15,2015-05-23 15:39:00,
2015-05-23 11:44:00,70.3,47.9,30.37,SSW,200,0.0,6.0,45,0.00,,,0.00,Wunderground v.1.15,2015-05-23 15:44:00,
2015-05-23 11:49:00,70.8,47.2,30.37,NNW,336,0.0,6.0,43,0.00,,,0.00,Wunderground v.1.15,2015-05-23 15:49:00,
2015-05-23 11:54:00,71.1,44.9,30.37,SSW,200,0.0,4.0,39,0.00,,,0.00,Wunderground v.1.15,2015-05-23 15:54:00,
2015-05-23 11:59:00,71.5,45.2,30.37,SSW,195,0.0,5.0,39,0.00,,,0.00,Wunderground v.1.15,2015-05-23 15:59:00,
2015-05-23 12:04:00,71.6,45.3,30.37,SW,215,0.0,5.0,39,0.00,,,0.00,Wunderground v.1.15,2015-05-23 16:04:00,
2015-05-23 12:09:00,71.6,43.9,30.37,SSW,198,0.0,5.0,37,0.00,,,0.00,Wunderground v.1.15,2015-05-23 16:09:00,
2015-05-23 12:14:00,72.0,43.6,30.37,SSW,198,0.0,5.0,36,0.00,,,0.00,Wunderground v.1.15,2015-05-23 16:14:00,
2015-05-23 12:19:00,72.5,45.4,30.37,SSW,198,0.0,5.0,38,0.00,,,0.00,Wunderground v.1.15,2015-05-23 16:19:00,
2015-05-23 12:24:00,72.7,43.5,30.37,WSW,250,0.0,5.0,35,0.00,,,0.00,Wunderground v.1.15,2015-05-23 16:24:00,
2015-05-23 12:29:00,72.8,46.4,30.37,WSW,250,0.0,5.0,39,0.00,,,0.00,Wunderground v.1.15,2015-05-23 16:29:00,
2015-05-23 12:34:00,73.0,46.6,30.37,South,177,0.0,7.0,39,0.00,,,0.00,Wunderground v.1.15,2015-05-23 16:34:00,
2015-05-23 12:39:00,73.3,44.0,30.37,NW,313,0.0,7.0,35,0.00,,,0.00,Wunderground v.1.15,2015-05-23 16:39:00,
2015-05-23 12:44:00,74.0,44.6,30.37,NW,313,0.0,1.0,35,0.00,,,0.00,Wunderground v.1.15,2015-05-23 16:44:00,
2015-05-23 12:49:00,74.4,43.4,30.36,ESE,105,0.0,2.0,33,0.00,,,0.00,Wunderground v.1.15,2015-05-23 16:49:00,
2015-05-23 12:55:00,74.7,47.4,30.36,SSW,206,0.0,7.0,38,0.00,,,0.00,Wunderground v.1.15,2015-05-23 16:55:00,
2015-05-23 13:00:00,74.9,45.4,30.36,South,190,0.0,7.0,35,0.00,,,0.00,Wunderground v.1.15,2015-05-23 17:00:00,
2015-05-23 13:05:00,74.9,44.6,30.35,South,188,0.0,4.0,34,0.00,,,0.00,Wunderground v.1.15,2015-05-23 17:05:00,
2015-05-23 13:10:00,74.9,44.6,30.35,South,177,0.0,5.0,34,0.00,,,0.00,Wunderground v.1.15,2015-05-23 17:10:00,
2015-05-23 13:15:00,74.9,45.4,30.35,SSW,192,1.0,5.0,35,0.00,,,0.00,Wunderground v.1.15,2015-05-23 17:15:00,